星链-1215 (STARLINK-1215 )

导读 | 豆包AI

STARLINK-1215是美国太空探索技术公司(SpaceX)发射的星链(Starlink)星座卫星,于北京时间2020年2月17日发射升空,是星链第五批组网卫星之一,属Starlink v1.0批次。 该卫星运行于近地轨道,作为星链计划组网卫星,旨在为全球偏远地区提供高速低延迟宽带互联网服务,助力完成SpaceX近万颗低轨卫星星座的构建,当前该卫星仍在轨正常服务。

Basic Information
目录编号:
45225
目录名称:
STARLINK-1215
国际标识:
2020-012AZ
轨道中心:
EARTH
卫星名称:
星链-1215
卫星全名:
星链-1215 (STARLINK-1215 )
卫星状态:
在轨 (已飞行2217 天)
发射日期:
2020-02-17 UTC
国别 :
美国 (US)
星等 :
--
Orbit Information
数据来源 国际轨道数据 AOE轨道数据
星历时间 2026-03-14T07:11:44+0800
10小时前
查看轨道信息
2026-03-11T16:00:00+0800
3天前
查看轨道信息
半长轴 6853.351km 6853.403km
偏心率 0.0001238 0.0001292
轨道倾角 53.160° 53.160°
近地点辐角 88.793° 71.270°
升交点赤经 338.439° 350.671°
平近点角 271.322° 175.596°
近地点 474.365km 474.38km
远地点 476.063km 476.152km
周期 94.105分钟 94.106分钟
每日圈数 15.302004 15.30183
Detailed Information
固有亮度:
5
最大亮度:
2.5
卫星平台:
Starlink V1.0
覆盖范围:
全球
运营商:
太空探索技术公司
运营商所在国:
美国
制造商(研发单位):
太空探索技术公司
制造商所在国:
美国
使用方式:
暂无
Satellite Introduction
星链(Starlink)计划是由太空探索技术公司(SpaceX)提出的一个巨型低轨卫星互联网星座项目,计划在2019年至2024年间在太空搭建由约1.2万颗卫星组成的“星链”网络,其中1584颗将部署在地球上空550千米处的近地轨道,并从2020年开始工作。该卫星仍在工作。
2D Orbit Map
3D Orbit Map
Orbit Altitude Analysis Chart
Orbit Inclination Analysis Chart
Orbit Comprehensive Analysis Chart
View Comprehensive Chart